{"data":{"norad_id":51630,"epoch":"2026-09-20T02:56:13.544736Z","epoch_age_seconds":58630,"freshness":"FRESH","line1":"1 51630U 22012J   26263.12237899 -.00000667  00000+0 -19485-2 0  9991","line2":"2 51630  87.8911  17.3682 0001263  91.7051 268.4221 13.10373111221778","mean_motion":13.10373111,"eccentricity":0.0001263,"inclination_deg":87.8911,"raan_deg":17.3682,"arg_perigee_deg":91.7051,"mean_anomaly_deg":268.4221,"bstar":-0.0019485,"rev_number":22177,"period_min":109.89236484722,"perigee_km":1220.756152588,"apogee_km":1222.6758754594,"semimajor_km":7599.8530140237,"source":"CELESTRAK","updated_at":"2026-09-20T09:00:44.709259Z"}}